Content
SEND FEEDBACK

Daily
Averages
Monthly
Summary
United States of America

ST. LOUIS, MISSOURI


Home > North America > United States > Missouri
Elevation: 163 meters     Latitude: 38 45N     Longitude: 090 22W

WEATHER
 
SELECT A DAY
Number of Records: 201,172;   Date Range: 1/1/95 - 12/16/14
 
SHARE

PRINT THIS DATA

[ ← Previous Day ]
WEATHER ALMANAC - 25 OCTOBER, 2013
[ Next Day → ]
[ °F ]   °C
Weather ElementAverageHighLow
Temperature4.3 °C12.2 °C (3:54 pm)-3.9 °C (1:54 am)
Dewpoint-3.9 °C-1.1 °C (9:54 am)-5.6 °C (1:54 am)
Humidity60 %92 % (4:54 am)30 % (3:54 pm)
Barometer1030.1 hPa1034.5 hPa (8:54 am)1023.4 hPa (11:54 pm)
Wind Speed4.8 km/h11.1 km/h (7:54 pm)
Weather ElementAverage
Visibility16.1 km
Wind DirectionE (95.2 °)

Weather ElementTotal
Precipitation---
Heating Degree Days14.2 (Base 18.3)
Averaged from 23 records on 25 October, 2013
WEATHER CONDITIONS BREAKOUT
WIND DIRECTION BREAKOUT
WEATHER BY HOUR - 25 OCTOBER, 2013
[ °F ]   °C
Local TimeTemperatureDewpointHumidityBarometerVisibilityWind DirectionWind SpeedGust SpeedPrecipitationEventsConditions
1:54 AM-3.9 °C-5.6 °C88 %1031.5 hPa16.1 kmCalmClear
2:54 AM-3.3 °C-5 °C88 %1031.8 hPa16.1 kmCalmClear
3:54 AM-3.3 °C-5 °C88 %1031.8 hPa16.1 kmCalmClear
4:54 AM-3.9 °C-5 °C92 %1032.2 hPa16.1 kmCalmClear
5:54 AM-3.3 °C-5 °C88 %1033.2 hPa16.1 kmCalmClear
6:54 AM-3.3 °C-5 °C88 %1033.5 hPa16.1 kmCalmClear
7:54 AM-3.9 °C-5.6 °C88 %1033.9 hPa16.1 kmCalmClear
8:54 AM-0.6 °C-2.2 °C89 %1034.5 hPa16.1 kmCalmClear
9:54 AM3.9 °C-1.1 °C70 %1034.2 hPa16.1 kmWSW (240°)7.4 km/hClear
10:54 AM7.2 °C-1.7 °C53 %1033.9 hPa16.1 kmWSW (250°)7.4 km/hClear
11:54 AM9.4 °C-2.8 °C43 %1033.5 hPa16.1 kmWest (270°)9.3 km/hPartly Cloudy
12:54 PM10 °C-2.8 °C41 %1032.2 hPa16.1 kmCalmClear
1:54 PM11.1 °C-3.9 °C35 %1030.8 hPa16.1 kmVariable5.6 km/hScattered Clouds
2:54 PM11.7 °C-4.4 °C32 %1029.5 hPa16.1 kmVariable5.6 km/hPartly Cloudy
3:54 PM12.2 °C-5 °C30 %1028.8 hPa16.1 kmCalmClear
4:54 PM12.2 °C-5 °C30 %1027.8 hPa16.1 kmSouth (180°)9.3 km/hClear
5:54 PM10 °C-4.4 °C36 %1027.1 hPa16.1 kmSSW (200°)5.6 km/hClear
6:54 PM6.1 °C-2.8 °C53 %1026.8 hPa16.1 kmSSE (160°)7.4 km/hClear
7:54 PM5.6 °C-3.3 °C53 %1026.4 hPa16.1 kmSouth (170°)11.1 km/hClear
8:54 PM5.6 °C-3.3 °C53 %1025.7 hPa16.1 kmSouth (170°)9.3 km/hClear
9:54 PM6.1 °C-3.9 °C49 %1025.1 hPa16.1 kmSouth (170°)11.1 km/hClear
10:54 PM6.7 °C-4.4 °C45 %1024.4 hPa16.1 kmSouth (180°)9.3 km/hClear
11:54 PM6.1 °C-3.9 °C49 %1023.4 hPa16.1 kmSSW (200°)11.1 km/hClear
Hourly data recorded from KSUS, located 0 kilometers away from St. Louis, Missouri







STORIES FROM OUR PARTNERS